sat.trackr.live / text

‹ back to catalog

IMAGE

NORAD 26113 · 2000-017A

PAYLOAD ACTIVE UNKNOWN

§ Identity

Operator
Country
US
Launch date
2000-03-25
Launch site
AFWTR
Launch vehicle
Mass (kg)
RCS (m²)
2.40

External: N2YO · Heavens-Above · Gunter

§ Orbital elements

Epoch: 2026-05-20T09:48:00.949248Z

Period
853.76 min
Inclination
94.2067°
Eccentricity
0.7452477
Mean motion
1.68665746 rev/d
Perigee alt
1,216.4 km
Apogee alt
45,650.3 km
Semi-major
29,811.5 km
B*
3.3926e-2
RAAN
315.0050°
Arg perigee
290.9630°
Mean anomaly
8.3365°
Rev number
16,103

§ Raw data

IMAGE1 26113U 00017A   26140.40834432  .00000106  00000+0  33926-1 0  99922 26113  94.2067 315.0050 7452477 290.9630   8.3365  1.68665746161037

JSON: /api/v1/satellites/26113 · /tle

For live sub-satellite position, see the globe view (requires WebGL).

§ Visibility from observer

Set your observer location to see the next 7 days of passes ≥ 10°. The values pass through the URL so the page stays shareable.

No JS? Fill the form by hand. The geolocation button needs JavaScript.

§ Radio — SatNOGS DB

ModeDescriptionDownlinkUplink
FM Mode S 2.276 GHz

1 transmitter · refreshed weekly from db.satnogs.org